| time (UTC) | temp C | wind direction | speed KPH | gust KPH | rain 1hr cm | rain 24hr cm | rain mn cm | humidity % | barometer mb |
| 20260507134802 | 14 | 212 | 4.8 | 6.4 | 0.00 | 0.00 | 0.00 | 55 | 1019.4 |
| 20260507134317 | 14 | 197 | 3.2 | 6.4 | 0.00 | 0.00 | 0.00 | 58 | 1019.5 |
| 20260507133811 | 14 | 175 | 3.2 | 6.4 | 0.00 | 0.00 | 0.00 | 60 | 1019.5 |
| 20260507133306 | 13 | 156 | 1.6 | 8.0 | 0.00 | 0.00 | 0.00 | 59 | 1019.4 |
| 20260507132801 | 13 | 183 | 3.2 | 8.0 | 0.00 | 0.00 | 0.00 | 59 | 1019.4 |
| 20260507132256 | 13 | 179 | 1.6 | 4.8 | 0.00 | 0.00 | 0.00 | 62 | 1019.5 |
| 20260507131756 | 13 | 172 | 1.6 | 6.4 | 0.00 | 0.00 | 0.00 | 63 | 1019.6 |
| 20260507131311 | 13 | 188 | 0.0 | 6.4 | 0.00 | 0.00 | 0.00 | 63 | 1019.6 |
| 20260507130806 | 13 | 195 | 0.0 | 3.2 | 0.00 | 0.00 | 0.00 | 64 | 1019.5 |
| 20260507130300 | 13 | 206 | 1.6 | 3.2 | 0.00 | 0.00 | 0.00 | 62 | 1019.4 |
| 20260507125835 | 13 | 192 | 0.0 | 1.6 | 0.00 | 0.00 | 0.00 | 67 | 1019.4 |
| 20260507125309 | 13 | 168 | 0.0 | 1.6 | 0.00 | 0.00 | 0.00 | 63 | 1019.4 |
| 20260507124803 | 13 | 217 | 0.0 | 0.0 | 0.00 | 0.00 | 0.00 | 68 | 1019.4 |
| 20260507124257 | 11 | 221 | 0.0 | 0.0 | 0.00 | 0.00 | 0.00 | 74 | 1019.4 |
| 20260507123755 | 10 | 220 | 0.0 | 0.0 | 0.00 | 0.00 | 0.00 | 76 | 1019.4 |
| 20260507123310 | 9 | 220 | 0.0 | 0.0 | 0.00 | 0.00 | 0.00 | 80 | 1019.2 |
| 20260507122805 | 7 | 188 | 0.0 | 0.0 | 0.00 | 0.00 | 0.00 | 86 | 1019.2 |
| 20260507122321 | 7 | 225 | 0.0 | 0.0 | 0.00 | 0.00 | 0.00 | 86 | 1019.2 |
| 20260507121755 | 6 | 225 | 0.0 | 0.0 | 0.00 | 0.00 | 0.00 | 86 | 1019.2 |
| 20260507121310 | 6 | 225 | 0.0 | 0.0 | 0.00 | 0.00 | 0.00 | 86 | 1019.2 |
| 20260507120805 | 7 | 225 | 0.0 | 0.0 | 0.00 | 0.00 | 0.00 | 86 | 1019.2 |
| 20260507120300 | 7 | 225 | 0.0 | 0.0 | 0.00 | 0.00 | 0.00 | 86 | 1019.2 |
| 20260507115759 | 6 | 225 | 0.0 | 0.0 | 0.00 | 0.00 | 0.00 | 87 | 1019.1 |
| 20260507115314 | 6 | 230 | 0.0 | 0.0 | 0.00 | 0.00 | 0.00 | 87 | 1019.1 |
| 20260507114809 | 6 | 233 | 0.0 | 0.0 | 0.00 | 0.00 | 0.00 | 88 | 1018.9 |
| 20260507114324 | 6 | 245 | 0.0 | 0.0 | 0.00 | 0.00 | 0.00 | 90 | 1019.0 |
| 20260507113757 | 5 | 290 | 0.0 | 0.0 | 0.00 | 0.00 | 0.00 | 90 | 1018.9 |
| 20260507113312 | 5 | 290 | 0.0 | 0.0 | 0.00 | 0.00 | 0.00 | 90 | 1019.0 |
| 20260507112827 | 5 | 290 | 0.0 | 0.0 | 0.00 | 0.00 | 0.00 | 90 | 1019.1 |
| 20260507112322 | 5 | 290 | 0.0 | 0.0 | 0.00 | 0.00 | 0.00 | 90 | 1019.0 |
| 20260507111755 | 5 | 290 | 0.0 | 0.0 | 0.00 | 0.00 | 0.00 | 90 | 1019.0 |
| 20260507111310 | 5 | 290 | 0.0 | 0.0 | 0.00 | 0.00 | 0.00 | 90 | 1018.8 |
| 20260507110804 | 6 | 290 | 0.0 | 0.0 | 0.00 | 0.00 | 0.00 | 91 | 1018.7 |
| 20260507110303 | 6 | 290 | 0.0 | 0.0 | 0.00 | 0.00 | 0.00 | 91 | 1018.7 |
| 20260507105758 | 6 | 290 | 0.0 | 0.0 | 0.00 | 0.00 | 0.00 | 91 | 1018.6 |
| 20260507105312 | 6 | 290 | 0.0 | 0.0 | 0.00 | 0.00 | 0.00 | 92 | 1018.6 |
| 20260507104828 | 6 | 290 | 0.0 | 0.0 | 0.00 | 0.00 | 0.00 | 92 | 1018.6 |
| 20260507104302 | 6 | 290 | 0.0 | 0.0 | 0.00 | 0.00 | 0.00 | 92 | 1018.6 |
| 20260507103814 | 6 | 290 | 0.0 | 0.0 | 0.00 | 0.00 | 0.00 | 92 | 1018.6 |
| 20260507103309 | 6 | 290 | 0.0 | 0.0 | 0.00 | 0.00 | 0.00 | 93 | 1018.5 |
| 20260507102804 | 6 | 290 | 0.0 | 0.0 | 0.00 | 0.00 | 0.00 | 94 | 1018.6 |
| 20260507102259 | 6 | 290 | 0.0 | 0.0 | 0.00 | 0.00 | 0.00 | 94 | 1018.6 |
| 20260507101757 | 6 | 290 | 0.0 | 0.0 | 0.00 | 0.00 | 0.00 | 94 | 1018.6 |
| 20260507101312 | 6 | 290 | 0.0 | 0.0 | 0.00 | 0.00 | 0.00 | 94 | 1018.6 |
| 20260507100806 | 6 | 290 | 0.0 | 0.0 | 0.00 | 0.00 | 0.00 | 94 | 1018.5 |
| 20260507100321 | 6 | 290 | 0.0 | 0.0 | 0.00 | 0.00 | 0.00 | 94 | 1018.6 |
| 20260507095835 | 6 | 290 | 0.0 | 0.0 | 0.00 | 0.00 | 0.00 | 94 | 1018.6 |
| 20260507095309 | 6 | 290 | 0.0 | 0.0 | 0.00 | 0.00 | 0.00 | 94 | 1018.5 |
| 20260507094804 | 6 | 290 | 0.0 | 0.0 | 0.00 | 0.00 | 0.00 | 94 | 1018.6 |
| 20260507094319 | 6 | 290 | 0.0 | 0.0 | 0.00 | 0.00 | 0.00 | 94 | 1018.6 |
| 20260507093812 | 6 | 290 | 0.0 | 0.0 | 0.00 | 0.00 | 0.00 | 94 | 1018.6 |
| 20260507093307 | 6 | 290 | 0.0 | 0.0 | 0.00 | 0.00 | 0.00 | 95 | 1018.7 |
| 20260507092803 | 5 | 290 | 0.0 | 0.0 | 0.00 | 0.00 | 0.00 | 95 | 1018.7 |
| 20260507092258 | 5 | 290 | 0.0 | 0.0 | 0.00 | 0.00 | 0.00 | 95 | 1018.8 |
| 20260507091812 | 5 | 290 | 0.0 | 0.0 | 0.00 | 0.00 | 0.00 | 95 | 1018.9 |
| 20260507091307 | 5 | 290 | 0.0 | 0.0 | 0.00 | 0.00 | 0.00 | 95 | 1018.7 |
| 20260507090823 | 5 | 290 | 0.0 | 0.0 | 0.00 | 0.00 | 0.00 | 95 | 1018.8 |
| 20260507090257 | 5 | 290 | 0.0 | 0.0 | 0.00 | 0.00 | 0.00 | 95 | 1018.6 |
| 20260507085811 | 5 | 290 | 0.0 | 0.0 | 0.00 | 0.00 | 0.00 | 95 | 1018.6 |
| 20260507085306 | 4 | 290 | 0.0 | 0.0 | 0.00 | 0.00 | 0.00 | 95 | 1018.7 |
| 20260507084759 | 4 | 290 | 0.0 | 0.0 | 0.00 | 0.00 | 0.00 | 95 | 1018.6 |
| 20260507084313 | 4 | 290 | 0.0 | 0.0 | 0.00 | 0.00 | 0.00 | 95 | 1018.4 |
| 20260507083828 | 3 | 290 | 0.0 | 0.0 | 0.00 | 0.00 | 0.00 | 95 | 1018.5 |
| 20260507083322 | 3 | 290 | 0.0 | 0.0 | 0.00 | 0.00 | 0.00 | 94 | 1018.6 |
| 20260507082757 | 3 | 290 | 0.0 | 0.0 | 0.00 | 0.00 | 0.00 | 94 | 1018.6 |
| 20260507082311 | 3 | 290 | 0.0 | 0.0 | 0.00 | 0.00 | 0.00 | 94 | 1018.7 |
| 20260507081807 | 3 | 290 | 0.0 | 0.0 | 0.00 | 0.00 | 0.00 | 94 | 1018.6 |
| 20260507081321 | 3 | 290 | 0.0 | 0.0 | 0.00 | 0.00 | 0.00 | 93 | 1018.7 |
| 20260507080814 | 3 | 290 | 0.0 | 0.0 | 0.00 | 0.00 | 0.00 | 93 | 1018.6 |
| 20260507080310 | 3 | 290 | 0.0 | 0.0 | 0.00 | 0.00 | 0.00 | 93 | 1018.6 |
| 20260507075826 | 2 | 290 | 0.0 | 0.0 | 0.00 | 0.00 | 0.00 | 93 | 1018.6 |
| 20260507075300 | 3 | 290 | 0.0 | 0.0 | 0.00 | 0.00 | 0.00 | 93 | 1018.6 |
| 20260507074755 | 3 | 290 | 0.0 | 0.0 | 0.00 | 0.00 | 0.00 | 93 | 1018.7 |
| 20260507074310 | 3 | 290 | 0.0 | 0.0 | 0.00 | 0.00 | 0.00 | 93 | 1018.7 |
| 20260507073809 | 3 | 290 | 0.0 | 0.0 | 0.00 | 0.00 | 0.00 | 93 | 1018.7 |
| 20260507073304 | 3 | 290 | 0.0 | 0.0 | 0.00 | 0.00 | 0.00 | 92 | 1018.8 |
| 20260507072800 | 3 | 290 | 0.0 | 0.0 | 0.00 | 0.00 | 0.00 | 92 | 1018.8 |
| 20260507072255 | 3 | 290 | 0.0 | 0.0 | 0.00 | 0.00 | 0.00 | 92 | 1018.9 |
| 20260507071811 | 3 | 290 | 0.0 | 0.0 | 0.00 | 0.00 | 0.00 | 92 | 1019.0 |
| 20260507071326 | 3 | 290 | 0.0 | 0.0 | 0.00 | 0.00 | 0.00 | 93 | 1019.0 |
| 20260507070759 | 3 | 290 | 0.0 | 0.0 | 0.00 | 0.00 | 0.00 | 92 | 1019.2 |
| 20260507070313 | 3 | 290 | 0.0 | 0.0 | 0.00 | 0.00 | 0.00 | 92 | 1019.2 |
| 20260507065807 | 3 | 290 | 0.0 | 0.0 | 0.00 | 0.00 | 0.00 | 92 | 1019.2 |
| 20260507065306 | 3 | 290 | 0.0 | 0.0 | 0.00 | 0.00 | 0.00 | 92 | 1019.2 |
| 20260507064802 | 3 | 290 | 0.0 | 0.0 | 0.00 | 0.00 | 0.00 | 91 | 1019.2 |
| 20260507064257 | 3 | 290 | 0.0 | 0.0 | 0.00 | 0.00 | 0.00 | 91 | 1019.2 |
| 20260507063831 | 3 | 290 | 0.0 | 0.0 | 0.00 | 0.00 | 0.00 | 92 | 1019.3 |
| 20260507062801 | 3 | 290 | 0.0 | 0.0 | 0.00 | 0.00 | 0.00 | 91 | 1019.2 |
| 20260507062317 | 3 | 290 | 0.0 | 0.0 | 0.00 | 0.00 | 0.00 | 90 | 1019.2 |
| 20260507061813 | 3 | 290 | 0.0 | 0.0 | 0.00 | 0.00 | 0.00 | 90 | 1019.2 |
| 20260507061311 | 3 | 290 | 0.0 | 0.0 | 0.00 | 0.00 | 0.00 | 90 | 1019.2 |
| 20260507060806 | 3 | 290 | 0.0 | 0.0 | 0.00 | 0.00 | 0.00 | 90 | 1019.3 |
| 20260507060301 | 3 | 290 | 0.0 | 0.0 | 0.00 | 0.00 | 0.00 | 89 | 1019.3 |
| 20260507055757 | 4 | 290 | 0.0 | 0.0 | 0.00 | 0.00 | 0.00 | 89 | 1019.3 |
| 20260507055311 | 4 | 290 | 0.0 | 0.0 | 0.00 | 0.00 | 0.00 | 88 | 1019.2 |
| 20260507054806 | 4 | 290 | 0.0 | 0.0 | 0.00 | 0.00 | 0.00 | 88 | 1019.2 |
| 20260507054321 | 4 | 290 | 0.0 | 0.0 | 0.00 | 0.00 | 0.00 | 87 | 1019.3 |
| 20260507053834 | 4 | 290 | 0.0 | 0.0 | 0.00 | 0.00 | 0.00 | 87 | 1019.2 |
| 20260507053308 | 4 | 290 | 0.0 | 0.0 | 0.00 | 0.00 | 0.00 | 85 | 1019.2 |
| 20260507052823 | 5 | 290 | 0.0 | 0.0 | 0.00 | 0.00 | 0.00 | 86 | 1019.3 |
| 20260507052301 | 5 | 290 | 0.0 | 0.0 | 0.00 | 0.00 | 0.00 | 87 | 1019.2 |
| 20260507051757 | 5 | 290 | 0.0 | 0.0 | 0.00 | 0.00 | 0.00 | 87 | 1019.3 |
| 20260507051312 | 5 | 290 | 0.0 | 0.0 | 0.00 | 0.00 | 0.00 | 88 | 1019.3 |
| 20260507050807 | 5 | 290 | 0.0 | 0.0 | 0.00 | 0.00 | 0.00 | 88 | 1019.2 |
| 20260507050302 | 5 | 290 | 0.0 | 0.0 | 0.00 | 0.00 | 0.00 | 88 | 1019.2 |
| 20260507045817 | 5 | 290 | 0.0 | 0.0 | 0.00 | 0.00 | 0.00 | 86 | 1019.2 |
| 20260507045310 | 5 | 290 | 0.0 | 0.0 | 0.00 | 0.00 | 0.00 | 85 | 1019.2 |
| 20260507044805 | 5 | 290 | 0.0 | 0.0 | 0.00 | 0.00 | 0.00 | 85 | 1019.2 |
| 20260507044304 | 5 | 290 | 0.0 | 0.0 | 0.00 | 0.00 | 0.00 | 85 | 1019.1 |
| 20260507043800 | 5 | 290 | 0.0 | 0.0 | 0.00 | 0.00 | 0.00 | 84 | 1019.2 |
| 20260507043335 | 5 | 290 | 0.0 | 0.0 | 0.00 | 0.00 | 0.00 | 84 | 1019.1 |
| 20260507042809 | 5 | 290 | 0.0 | 0.0 | 0.00 | 0.00 | 0.00 | 84 | 1019.1 |
| 20260507042307 | 5 | 290 | 0.0 | 0.0 | 0.00 | 0.00 | 0.00 | 83 | 1019.1 |
| 20260507041759 | 5 | 290 | 0.0 | 0.0 | 0.00 | 0.00 | 0.00 | 83 | 1019.0 |
| 20260507041256 | 5 | 290 | 0.0 | 0.0 | 0.00 | 0.00 | 0.00 | 83 | 1019.1 |
| 20260507040810 | 5 | 290 | 0.0 | 0.0 | 0.00 | 0.00 | 0.00 | 84 | 1019.0 |
| 20260507040309 | 5 | 290 | 0.0 | 0.0 | 0.00 | 0.00 | 0.00 | 84 | 1019.0 |
| 20260507035805 | 5 | 290 | 0.0 | 0.0 | 0.00 | 0.00 | 0.00 | 84 | 1018.9 |
| 20260507035320 | 5 | 290 | 0.0 | 0.0 | 0.00 | 0.00 | 0.00 | 84 | 1019.0 |
| 20260507034813 | 5 | 290 | 0.0 | 0.0 | 0.00 | 0.00 | 0.00 | 84 | 1018.9 |
| 20260507034308 | 6 | 290 | 0.0 | 0.0 | 0.00 | 0.00 | 0.00 | 83 | 1018.9 |
| 20260507033803 | 6 | 290 | 0.0 | 0.0 | 0.00 | 0.00 | 0.00 | 83 | 1018.9 |
| 20260507033319 | 6 | 290 | 0.0 | 0.0 | 0.00 | 0.00 | 0.00 | 82 | 1018.9 |
| 20260507032814 | 6 | 290 | 0.0 | 0.0 | 0.00 | 0.00 | 0.00 | 82 | 1018.8 |
| 20260507032313 | 6 | 290 | 0.0 | 0.0 | 0.00 | 0.00 | 0.00 | 81 | 1018.8 |
| 20260507031807 | 6 | 290 | 0.0 | 0.0 | 0.00 | 0.00 | 0.00 | 81 | 1018.7 |
| 20260507031302 | 6 | 290 | 0.0 | 0.0 | 0.00 | 0.00 | 0.00 | 79 | 1018.8 |
| 20260507030817 | 6 | 290 | 0.0 | 0.0 | 0.00 | 0.00 | 0.00 | 79 | 1018.9 |
| 20260507030310 | 6 | 290 | 0.0 | 0.0 | 0.00 | 0.00 | 0.00 | 80 | 1018.8 |
| 20260507025827 | 7 | 290 | 0.0 | 0.0 | 0.00 | 0.00 | 0.00 | 79 | 1018.8 |
| 20260507025320 | 7 | 290 | 0.0 | 0.0 | 0.00 | 0.00 | 0.00 | 78 | 1018.7 |
| 20260507024814 | 7 | 290 | 0.0 | 0.0 | 0.00 | 0.00 | 0.00 | 78 | 1018.8 |
| 20260507024309 | 7 | 290 | 0.0 | 0.0 | 0.00 | 0.00 | 0.00 | 77 | 1018.7 |
| 20260507023805 | 7 | 290 | 0.0 | 0.0 | 0.00 | 0.00 | 0.00 | 79 | 1018.8 |
| 20260507023304 | 7 | 290 | 0.0 | 0.0 | 0.00 | 0.00 | 0.00 | 77 | 1018.7 |
| 20260507020809 | 8 | 290 | 0.0 | 0.0 | 0.00 | 0.00 | 0.00 | 74 | 1018.3 |
| 20260507020304 | 8 | 290 | 0.0 | 0.0 | 0.00 | 0.00 | 0.00 | 72 | 1018.3 |
| 20260507015819 | 8 | 290 | 0.0 | 0.0 | 0.00 | 0.00 | 0.00 | 70 | 1018.3 |
| 20260507015333 | 9 | 290 | 0.0 | 0.0 | 0.00 | 0.00 | 0.00 | 70 | 1018.2 |
| 20260507014807 | 9 | 290 | 0.0 | 0.0 | 0.00 | 0.00 | 0.00 | 69 | 1018.2 |
| 20260507014326 | 10 | 289 | 0.0 | 0.0 | 0.00 | 0.00 | 0.00 | 66 | 1018.1 |
| 20260507013819 | 10 | 314 | 0.0 | 0.0 | 0.00 | 0.00 | 0.00 | 67 | 1018.0 |
| 20260507013314 | 10 | 316 | 0.0 | 0.0 | 0.00 | 0.00 | 0.00 | 66 | 1018.0 |
| 20260507012809 | 10 | 317 | 0.0 | 0.0 | 0.00 | 0.00 | 0.00 | 63 | 1017.8 |
| 20260507012306 | 11 | 317 | 0.0 | 1.6 | 0.00 | 0.00 | 0.00 | 62 | 1017.8 |
| 20260507011819 | 11 | 316 | 0.0 | 1.6 | 0.00 | 0.00 | 0.00 | 62 | 1017.8 |
| 20260507011314 | 11 | 312 | 0.0 | 1.6 | 0.00 | 0.00 | 0.00 | 61 | 1017.7 |
| 20260507010809 | 12 | 345 | 0.0 | 1.6 | 0.00 | 0.00 | 0.00 | 58 | 1017.7 |
| 20260507010308 | 12 | 311 | 0.0 | 0.0 | 0.00 | 0.00 | 0.00 | 59 | 1017.6 |
| 20260507005803 | 12 | 321 | 0.0 | 0.0 | 0.00 | 0.05 | 0.00 | 57 | 1017.7 |
| 20260507005318 | 12 | 356 | 0.0 | 4.8 | 0.00 | 0.05 | 0.00 | 56 | 1017.6 |
| 20260507004813 | 13 | 267 | 0.0 | 6.4 | 0.00 | 0.05 | 0.00 | 54 | 1017.6 |
| 20260507004308 | 13 | 357 | 1.6 | 8.0 | 0.00 | 0.05 | 0.00 | 53 | 1017.6 |
| 20260507003802 | 13 | 343 | 1.6 | 11.3 | 0.00 | 0.05 | 0.00 | 54 | 1017.6 |
| 20260507003336 | 13 | 27 | 3.2 | 8.0 | 0.00 | 0.05 | 0.00 | 53 | 1017.5 |
| 20260507002810 | 13 | 305 | 1.6 | 6.4 | 0.00 | 0.05 | 0.00 | 52 | 1017.4 |
| 20260507002329 | 14 | 340 | 1.6 | 6.4 | 0.00 | 0.05 | 0.00 | 51 | 1017.3 |
| 20260507001803 | 14 | 316 | 1.6 | 6.4 | 0.00 | 0.05 | 0.00 | 54 | 1017.1 |
| 20260507001317 | 13 | 301 | 1.6 | 3.2 | 0.00 | 0.05 | 0.00 | 56 | 1017.1 |
| 20260507000832 | 13 | 19 | 0.0 | 3.2 | 0.00 | 0.05 | 0.00 | 55 | 1016.9 |
| 20260507000328 | 14 | 287 | 0.0 | 3.2 | 0.00 | 0.05 | 0.00 | 55 | 1016.8 |
| 20260506235800 | 14 | 291 | 0.0 | 4.8 | 0.00 | 0.08 | 0.00 | 54 | 1016.8 |
| 20260506235314 | 14 | 58 | 0.0 | 8.0 | 0.00 | 0.08 | 0.00 | 55 | 1016.9 |
| 20260506234807 | 15 | 154 | 0.0 | 6.4 | 0.00 | 0.08 | 0.00 | 54 | 1016.8 |
| 20260506234302 | 15 | 330 | 3.2 | 8.0 | 0.00 | 0.08 | 0.00 | 51 | 1016.8 |
| 20260506233801 | 15 | 304 | 1.6 | 8.0 | 0.00 | 0.08 | 0.00 | 51 | 1016.8 |
| 20260506233316 | 15 | 239 | 1.6 | 8.0 | 0.00 | 0.08 | 0.00 | 48 | 1016.6 |
| 20260506232830 | 15 | 7 | 3.2 | 11.3 | 0.00 | 0.08 | 0.00 | 51 | 1016.7 |
| 20260506232306 | 15 | 334 | 4.8 | 9.7 | 0.00 | 0.08 | 0.00 | 50 | 1016.6 |
| 20260506231818 | 15 | 156 | 0.0 | 8.0 | 0.00 | 0.08 | 0.00 | 50 | 1016.5 |
| 20260506231313 | 15 | 15 | 3.2 | 8.0 | 0.00 | 0.08 | 0.00 | 50 | 1016.7 |
| 20260506230807 | 15 | 329 | 1.6 | 8.0 | 0.00 | 0.08 | 0.00 | 48 | 1016.9 |
| 20260506230302 | 15 | 35 | 3.2 | 8.0 | 0.00 | 0.08 | 0.00 | 52 | 1017.0 |
| 20260506225814 | 15 | 274 | 1.6 | 8.0 | 0.00 | 0.08 | 0.00 | 48 | 1016.9 |
| 20260506225309 | 15 | 310 | 3.2 | 9.7 | 0.00 | 0.08 | 0.00 | 50 | 1016.8 |
| 20260506224808 | 16 | 293 | 4.8 | 14.5 | 0.00 | 0.08 | 0.00 | 47 | 1016.7 |
| 20260506224302 | 16 | 3 | 4.8 | 14.5 | 0.00 | 0.08 | 0.00 | 49 | 1016.6 |
| 20260506223814 | 16 | 15 | 3.2 | 14.5 | 0.00 | 0.08 | 0.00 | 53 | 1016.6 |
| 20260506223308 | 16 | 328 | 1.6 | 11.3 | 0.00 | 0.08 | 0.00 | 52 | 1016.6 |
| 20260506222801 | 16 | 309 | 3.2 | 9.7 | 0.00 | 0.08 | 0.00 | 49 | 1016.8 |
| 20260506222316 | 16 | 238 | 3.2 | 11.3 | 0.00 | 0.08 | 0.00 | 52 | 1016.8 |
| 20260506221810 | 16 | 56 | 4.8 | 11.3 | 0.00 | 0.08 | 0.00 | 48 | 1016.7 |
| 20260506221308 | 16 | 328 | 1.6 | 9.7 | 0.00 | 0.08 | 0.00 | 49 | 1016.6 |
| 20260506220803 | 16 | 25 | 1.6 | 9.7 | 0.00 | 0.08 | 0.00 | 49 | 1016.7 |
| 20260506220338 | 16 | 149 | 3.2 | 9.7 | 0.00 | 0.08 | 0.00 | 52 | 1016.8 |
| 20260506215811 | 16 | 15 | 1.6 | 11.3 | 0.00 | 0.08 | 0.00 | 49 | 1016.7 |
| 20260506215306 | 16 | 5 | 3.2 | 12.9 | 0.00 | 0.08 | 0.00 | 50 | 1016.7 |
| 20260506214801 | 16 | 293 | 1.6 | 12.9 | 0.00 | 0.08 | 0.00 | 49 | 1016.6 |
| 20260506214316 | 16 | 311 | 4.8 | 14.5 | 0.00 | 0.08 | 0.00 | 52 | 1016.7 |
| 20260506213831 | 17 | 300 | 6.4 | 14.5 | 0.00 | 0.08 | 0.00 | 50 | 1016.7 |
| 20260506213305 | 16 | 326 | 3.2 | 12.9 | 0.00 | 0.08 | 0.00 | 50 | 1016.8 |
| 20260506212804 | 16 | 353 | 3.2 | 8.0 | 0.00 | 0.08 | 0.00 | 51 | 1016.8 |
| 20260506212319 | 16 | 266 | 1.6 | 11.3 | 0.00 | 0.08 | 0.00 | 54 | 1016.8 |
| 20260506211814 | 16 | 344 | 3.2 | 17.7 | 0.00 | 0.08 | 0.00 | 50 | 1016.8 |
| 20260506211309 | 16 | 352 | 3.2 | 17.7 | 0.00 | 0.08 | 0.00 | 52 | 1016.8 |
| 20260506210804 | 16 | 288 | 6.4 | 14.5 | 0.00 | 0.08 | 0.00 | 50 | 1016.9 |
| 20260506210338 | 16 | 33 | 3.2 | 11.3 | 0.00 | 0.08 | 0.00 | 50 | 1016.9 |
| 20260506205832 | 16 | 330 | 0.0 | 17.7 | 0.00 | 0.08 | 0.00 | 49 | 1016.9 |
| 20260506205306 | 16 | 310 | 6.4 | 16.1 | 0.00 | 0.08 | 0.00 | 48 | 1017.1 |
| 20260506204804 | 16 | 360 | 3.2 | 17.7 | 0.00 | 0.08 | 0.00 | 55 | 1017.1 |
| 20260506204319 | 16 | 328 | 3.2 | 17.7 | 0.00 | 0.08 | 0.00 | 52 | 1017.1 |
| 20260506203814 | 16 | 70 | 8.0 | 17.7 | 0.00 | 0.08 | 0.00 | 48 | 1017.2 |
| 20260506203308 | 17 | 143 | 4.8 | 16.1 | 0.00 | 0.08 | 0.00 | 46 | 1017.1 |
| 20260506202802 | 17 | 318 | 3.2 | 16.1 | 0.00 | 0.08 | 0.00 | 51 | 1017.2 |
| 20260506202317 | 17 | 143 | 3.2 | 12.9 | 0.00 | 0.08 | 0.00 | 49 | 1017.0 |
| 20260506201813 | 17 | 131 | 0.0 | 11.3 | 0.00 | 0.08 | 0.00 | 48 | 1017.0 |
| 20260506201307 | 17 | 293 | 4.8 | 11.3 | 0.00 | 0.08 | 0.00 | 50 | 1017.2 |
| 20260506200806 | 16 | 36 | 3.2 | 11.3 | 0.00 | 0.08 | 0.00 | 53 | 1017.5 |
| 20260506200301 | 16 | 340 | 3.2 | 11.3 | 0.00 | 0.08 | 0.00 | 47 | 1017.5 |
| 20260506195816 | 16 | 309 | 3.2 | 14.5 | 0.00 | 0.08 | 0.00 | 46 | 1017.7 |
| 20260506195311 | 16 | 121 | 4.8 | 14.5 | 0.00 | 0.08 | 0.00 | 49 | 1017.7 |
| 20260506194807 | 16 | 326 | 3.2 | 12.9 | 0.00 | 0.08 | 0.00 | 57 | 1017.7 |
| 20260506194303 | 16 | 360 | 4.8 | 12.9 | 0.00 | 0.08 | 0.00 | 52 | 1017.5 |
| 20260506193818 | 16 | 224 | 1.6 | 8.0 | 0.00 | 0.08 | 0.00 | 50 | 1017.9 |
| 20260506193332 | 16 | 44 | 1.6 | 14.5 | 0.00 | 0.08 | 0.00 | 55 | 1017.9 |
| 20260506192810 | 16 | 308 | 6.4 | 17.7 | 0.00 | 0.08 | 0.00 | 51 | 1018.0 |
| 20260506192306 | 16 | 343 | 6.4 | 19.3 | 0.00 | 0.08 | 0.00 | 51 | 1018.1 |
| 20260506191800 | 17 | 333 | 3.2 | 8.0 | 0.00 | 0.08 | 0.00 | 49 | 1018.0 |
| 20260506191315 | 16 | 270 | 0.0 | 12.9 | 0.00 | 0.08 | 0.00 | 54 | 1018.0 |
| 20260506190810 | 16 | 343 | 3.2 | 12.9 | 0.00 | 0.08 | 0.00 | 56 | 1018.1 |
| 20260506190305 | 16 | 9 | 3.2 | 11.3 | 0.00 | 0.08 | 0.00 | 57 | 1018.2 |
| 20260506185801 | 16 | 342 | 3.2 | 11.3 | 0.00 | 0.08 | 0.00 | 55 | 1018.3 |
| 20260506185300 | 16 | 306 | 1.6 | 12.9 | 0.00 | 0.08 | 0.00 | 53 | 1018.3 |
| 20260506184816 | 16 | 293 | 0.0 | 12.9 | 0.00 | 0.08 | 0.00 | 52 | 1018.4 |
| 20260506184310 | 16 | 319 | 1.6 | 8.0 | 0.00 | 0.08 | 0.00 | 58 | 1018.4 |
| 20260506183804 | 16 | 323 | 3.2 | 11.3 | 0.00 | 0.08 | 0.00 | 55 | 1018.6 |
| 20260506183319 | 16 | 325 | 0.0 | 11.3 | 0.00 | 0.08 | 0.00 | 55 | 1018.6 |
| 20260506182814 | 15 | 286 | 1.6 | 11.3 | 0.00 | 0.08 | 0.00 | 52 | 1018.8 |
| 20260506182307 | 15 | 326 | 0.0 | 11.3 | 0.00 | 0.08 | 0.00 | 59 | 1018.9 |
| 20260506181801 | 15 | 39 | 3.2 | 11.3 | 0.00 | 0.08 | 0.00 | 57 | 1018.9 |
| 20260506181335 | 15 | 313 | 0.0 | 14.5 | 0.00 | 0.08 | 0.00 | 54 | 1018.9 |
| 20260506180809 | 15 | 312 | 3.2 | 16.1 | 0.00 | 0.08 | 0.00 | 55 | 1019.1 |
| 20260506180308 | 15 | 322 | 8.0 | 16.1 | 0.00 | 0.08 | 0.00 | 54 | 1018.9 |
| 20260506175802 | 15 | 267 | 8.0 | 16.1 | 0.00 | 0.08 | 0.00 | 52 | 1018.9 |
| 20260506175317 | 15 | 10 | 6.4 | 14.5 | 0.00 | 0.08 | 0.00 | 51 | 1019.1 |
| 20260506174812 | 15 | 25 | 3.2 | 14.5 | 0.00 | 0.08 | 0.00 | 54 | 1019.2 |
| 20260506174307 | 15 | 316 | 0.0 | 11.3 | 0.00 | 0.08 | 0.00 | 55 | 1019.1 |
| 20260506173802 | 15 | 315 | 4.8 | 17.7 | 0.00 | 0.08 | 0.00 | 52 | 1019.1 |
| 20260506173337 | 15 | 307 | 3.2 | 9.7 | 0.00 | 0.08 | 0.00 | 58 | 1019.2 |
| 20260506172811 | 15 | 323 | 4.8 | 14.5 | 0.00 | 0.08 | 0.00 | 56 | 1019.2 |
| 20260506172310 | 15 | 32 | 3.2 | 12.9 | 0.00 | 0.08 | 0.00 | 54 | 1019.3 |
| 20260506171805 | 15 | 70 | 1.6 | 17.7 | 0.00 | 0.08 | 0.00 | 54 | 1019.2 |
| 20260506171300 | 15 | 290 | 4.8 | 17.7 | 0.00 | 0.08 | 0.00 | 57 | 1019.2 |
| 20260506170815 | 15 | 316 | 6.4 | 17.7 | 0.00 | 0.08 | 0.00 | 52 | 1019.2 |
| 20260506170310 | 15 | 10 | 3.2 | 14.5 | 0.00 | 0.08 | 0.00 | 56 | 1019.2 |
| 20260506165805 | 15 | 302 | 1.6 | 11.3 | 0.00 | 0.08 | 0.00 | 55 | 1019.2 |
| 20260506165339 | 15 | 335 | 3.2 | 11.3 | 0.00 | 0.08 | 0.00 | 52 | 1019.1 |
| 20260506164813 | 15 | 39 | 4.8 | 12.9 | 0.00 | 0.08 | 0.00 | 55 | 1018.9 |
| 20260506164312 | 15 | 338 | 3.2 | 12.9 | 0.00 | 0.08 | 0.00 | 53 | 1018.7 |
| 20260506163808 | 14 | 299 | 0.0 | 9.7 | 0.00 | 0.08 | 0.00 | 58 | 1018.6 |
| 20260506163302 | 14 | 248 | 3.2 | 9.7 | 0.00 | 0.08 | 0.00 | 52 | 1018.4 |
| 20260506162818 | 14 | 308 | 1.6 | 16.1 | 0.00 | 0.08 | 0.00 | 59 | 1018.6 |
| 20260506162313 | 14 | 314 | 4.8 | 16.1 | 0.00 | 0.08 | 0.00 | 59 | 1018.4 |
| 20260506161808 | 14 | 27 | 1.6 | 16.1 | 0.00 | 0.08 | 0.00 | 58 | 1018.2 |
| 20260506161303 | 13 | 98 | 4.8 | 12.9 | 0.00 | 0.08 | 0.00 | 60 | 1018.1 |
| 20260506160802 | 14 | 252 | 0.0 | 9.7 | 0.00 | 0.08 | 0.00 | 60 | 1018.2 |
| 20260506160337 | 13 | 32 | 1.6 | 12.9 | 0.00 | 0.08 | 0.00 | 60 | 1018.2 |
| 20260506155811 | 13 | 135 | 3.2 | 16.1 | 0.00 | 0.08 | 0.00 | 61 | 1018.1 |
| 20260506155306 | 13 | 306 | 3.2 | 16.1 | 0.00 | 0.08 | 0.00 | 60 | 1018.2 |
| 20260506154801 | 13 | 286 | 3.2 | 9.7 | 0.00 | 0.08 | 0.00 | 62 | 1018.2 |
| 20260506154315 | 13 | 330 | 1.6 | 9.7 | 0.00 | 0.08 | 0.00 | 58 | 1018.2 |
| 20260506153810 | 13 | 212 | 3.2 | 9.7 | 0.00 | 0.08 | 0.00 | 57 | 1018.4 |
| 20260506153304 | 13 | 51 | 1.6 | 9.7 | 0.00 | 0.08 | 0.00 | 58 | 1018.3 |
| 20260506152804 | 13 | 316 | 3.2 | 9.7 | 0.00 | 0.08 | 0.00 | 58 | 1018.1 |
| 20260506152319 | 13 | 259 | 4.8 | 14.5 | 0.00 | 0.08 | 0.00 | 60 | 1018.1 |
| 20260506151315 | 13 | 126 | 3.2 | 11.3 | 0.00 | 0.08 | 0.00 | 66 | 1017.7 |
| 20260506150830 | 12 | 314 | 1.6 | 12.9 | 0.00 | 0.08 | 0.00 | 64 | 1017.7 |
| 20260506150324 | 12 | 334 | 3.2 | 12.9 | 0.00 | 0.08 | 0.00 | 62 | 1017.8 |
| 20260506145837 | 12 | 293 | 1.6 | 8.0 | 0.00 | 0.08 | 0.00 | 68 | 1017.8 |
| 20260506145311 | 12 | 332 | 1.6 | 12.9 | 0.00 | 0.08 | 0.00 | 65 | 1017.7 |
| 20260506144806 | 12 | 327 | 1.6 | 12.9 | 0.00 | 0.08 | 0.00 | 68 | 1017.7 |
| 20260506144305 | 12 | 355 | 1.6 | 8.0 | 0.00 | 0.08 | 0.00 | 68 | 1017.9 |
| 20260506143819 | 12 | 327 | 1.6 | 8.0 | 0.00 | 0.08 | 0.00 | 71 | 1018.0 |
| 20260506143314 | 12 | 293 | 1.6 | 6.4 | 0.00 | 0.08 | 0.00 | 69 | 1017.9 |
| 20260506142810 | 11 | 287 | 1.6 | 6.4 | 0.00 | 0.08 | 0.00 | 68 | 1017.9 |
| 20260506142306 | 11 | 81 | 0.0 | 0.0 | 0.00 | 0.08 | 0.00 | 72 | 1018.0 |
| 20260506141840 | 11 | 343 | 0.0 | 4.8 | 0.00 | 0.08 | 0.00 | 74 | 1018.0 |
| 20260506141314 | 10 | 73 | 1.6 | 4.8 | 0.00 | 0.08 | 0.00 | 73 | 1018.1 |
| 20260506140808 | 10 | 120 | 0.0 | 0.0 | 0.00 | 0.08 | 0.00 | 76 | 1018.0 |
| 20260506140307 | 10 | 299 | 0.0 | 3.2 | 0.00 | 0.08 | 0.00 | 76 | 1018.0 |
| 20260506135802 | 10 | 174 | 0.0 | 3.2 | 0.00 | 0.08 | 0.00 | 77 | 1018.0 |
| 20260506135316 | 10 | 219 | 0.0 | 0.0 | 0.00 | 0.08 | 0.00 | 78 | 1018.0 |